SCP
0 0 0 0 0 0 0 0 0 0 0 0 0 0 0 0 0 0 0 0 0 0
0 0 0 0 0 0 0 0 0 0 0 0 0 0 0 0 0 0 0 0 0 0
0 0 0 0 0 0 0 0 0 0 0 0 0 0 0 0 0 0 0 0 0 0
0 0 0 0 0 0 0 0 0 0 0 0 0 0 0 0 0 0 0 0 0 0
0 0 0 0 0 0 0 0 0 0 0 0 0 0 0 0 0 0 0 0 0 0
0 0 0 0 0 0 0 0 0 0 0 0 0 0 0 0 0 0 0 0 0 0
0 0 0 0 0 0 0 0 0 0 0 0 0 0 0 0 0 0 0 0 0 0
0 0 0 0 0 0 0 0 0 0 0 0 0 0 0 0 0 0 0 0 0 0
0 0 0 0 0 0 0 0 0 0 0 0 0 0 0 0 0 0 0 0 0 0
0 0 0 0 0 0 0 0 0 0 0 0 0 0 0 0 0 0 0 0 0 0
0 0 0 0 0 0 0 0 0 0 0 0 0 0 0 0 0 0 0 0 0 0
0 0 0 0 0 0 0 0 0 0 0 0 0 0 0 0 0 0 0 0 0 0
0 0 0 0 0 0 0 0 0 0 0 0 0 0 0 0 0 0 0 0 0 0
0 0 0 0 0 0 0 0 0 0 0 0 0 0 0 0 0 0 0 0 0 0
Wind_Speed_500mb
68 64 59 55 53 46 46 39 33 29 35 40 29 28 28 29 26 26 27 22 27 33
65 62 60 58 60 53 47 36 35 31 26 25 28 30 26 24 23 27 24 25 25 23
64 60 56 58 55 52 48 37 36 36 33 33 30 29 30 24 20 18 15 15 17 20
58 58 56 52 52 52 47 45 45 45 35 33 30 26 20 15 13 11 12 14 18 21
43 51 53 55 56 50 44 41 36 33 30 27 24 20 16 12 10 10 13 17 21 26
41 48 56 58 55 48 41 39 37 32 30 27 23 17 12 9 10 15 19 23 26 30
46 50 53 54 49 44 43 39 38 36 31 25 18 12 9 10 14 18 20 24 30 34
51 53 53 51 51 49 47 44 40 34 28 21 15 11 10 13 16 19 24 28 30 30
55 56 55 54 52 50 47 43 37 32 25 19 13 11 15 17 20 23 25 25 26 25
58 58 57 56 54 50 46 40 36 29 22 16 13 15 18 21 23 24 23 20 18 20
61 60 59 56 53 50 43 37 32 25 20 16 15 18 20 22 22 21 18 15 19 24
63 61 59 56 52 46 40 36 29 24 18 17 19 21 22 22 21 16 15 17 22 28
63 60 57 54 49 44 40 34 28 22 22 22 22 23 23 21 18 16 18 22 29 37
62 59 55 52 48 44 39 32 27 28 26 25 25 25 23 20 20 20 22 27 33 38
Wind_Direction_500mb
239 238 237 234 235 236 245 248 245 244 242 250 249 255 259 263 256 277 279 277 280 286
238 235 230 228 226 227 237 243 242 231 231 244 248 255 243 244 253 260 269 273 282 293
236 231 223 220 225 229 228 233 234 235 237 239 228 226 239 246 248 256 267 280 293 306
227 222 218 212 214 219 218 231 233 236 218 219 225 224 222 222 237 258 280 302 312 317
208 205 201 198 202 209 225 226 215 201 202 199 198 198 206 222 251 286 303 308 316 322
198 194 188 192 200 211 220 196 189 188 188 190 192 197 214 245 282 298 311 318 320 328
195 195 195 198 201 204 195 189 184 184 189 190 195 209 237 276 299 306 313 324 328 330
194 193 195 196 195 190 188 184 186 189 188 191 200 226 268 288 300 315 323 325 327 328
191 191 189 188 188 188 188 188 188 188 191 199 219 261 286 299 308 314 315 317 322 328
188 188 187 188 189 191 191 190 191 192 199 217 247 273 289 297 301 303 303 308 318 327
191 190 190 191 193 194 192 193 197 202 216 239 265 278 282 285 288 290 298 307 318 324
196 196 196 196 196 195 197 200 206 215 232 252 260 269 273 276 280 284 293 314 321 325
201 201 201 200 199 200 202 207 215 229 241 248 256 264 269 270 267 279 297 311 322 329
203 202 202 203 202 204 207 214 226 235 239 246 255 261 262 262 272 288 305 317 325 328
Wind_Speed_850mb
68 64 59 55 53 46 46 39 33 29 35 40 29 28 28 29 26 26 27 22 27 33
65 62 60 58 60 53 47 36 35 31 26 25 28 30 26 24 23 27 24 25 25 23
64 60 56 58 55 52 48 37 36 36 33 33 30 29 30 24 20 18 15 15 17 20
58 58 56 52 52 52 47 45 45 45 35 33 30 26 20 15 13 11 12 14 18 21
43 51 53 55 56 50 44 41 36 33 30 27 24 20 16 12 10 10 13 17 21 26
41 48 56 58 55 48 41 39 37 32 30 27 23 17 12 9 10 15 19 23 26 30
46 50 53 54 49 44 43 39 38 36 31 25 18 12 9 10 14 18 20 24 30 34
51 53 53 51 51 49 47 44 40 34 28 21 15 11 10 13 16 19 24 28 30 30
55 56 55 54 52 50 47 43 37 32 25 19 13 11 15 17 20 23 25 25 26 25
58 58 57 56 54 50 46 40 36 29 22 16 13 15 18 21 23 24 23 20 18 20
61 60 59 56 53 50 43 37 32 25 20 16 15 18 20 22 22 21 18 15 19 24
63 61 59 56 52 46 40 36 29 24 18 17 19 21 22 22 21 16 15 17 22 28
63 60 57 54 49 44 40 34 28 22 22 22 22 23 23 21 18 16 18 22 29 37
62 59 55 52 48 44 39 32 27 28 26 25 25 25 23 20 20 20 22 27 33 38
Wind_Direction_850mb
239 238 237 234 235 236 245 248 245 244 242 250 249 255 259 263 256 277 279 277 280 286
238 235 230 228 226 227 237 243 242 231 231 244 248 255 243 244 253 260 269 273 282 293
236 231 223 220 225 229 228 233 234 235 237 239 228 226 239 246 248 256 267 280 293 306
227 222 218 212 214 219 218 231 233 236 218 219 225 224 222 222 237 258 280 302 312 317
208 205 201 198 202 209 225 226 215 201 202 199 198 198 206 222 251 286 303 308 316 322
198 194 188 192 200 211 220 196 189 188 188 190 192 197 214 245 282 298 311 318 320 328
195 195 195 198 201 204 195 189 184 184 189 190 195 209 237 276 299 306 313 324 328 330
194 193 195 196 195 190 188 184 186 189 188 191 200 226 268 288 300 315 323 325 327 328
191 191 189 188 188 188 188 188 188 188 191 199 219 261 286 299 308 314 315 317 322 328
188 188 187 188 189 191 191 190 191 192 199 217 247 273 289 297 301 303 303 308 318 327
191 190 190 191 193 194 192 193 197 202 216 239 265 278 282 285 288 290 298 307 318 324
196 196 196 196 196 195 197 200 206 215 232 252 260 269 273 276 280 284 293 314 321 325
201 201 201 200 199 200 202 207 215 229 241 248 256 264 269 270 267 279 297 311 322 329
203 202 202 203 202 204 207 214 226 235 239 246 255 261 262 262 272 288 305 317 325 328